Preview of NWS' New Version of Forecast
This preview is not operational and should not be used for support decisions.

Regional Weather Roundup (RWR)

Issued by National Weather Service (NWS)

                            
000
ASCA42 TJSJ 152110
RWRPR 
PUERTO RICO/U.S. VIRGIN ISLANDS HOURLY WEATHER ROUNDUP
NATIONAL WEATHER SERVICE SAN JUAN PR
500 PM AST MON OCT 15 2018

PRZ001>002-007>008-010-152200-
PUERTO RICO
  
CITY           SKY/WX    TMP DP  RH WIND       PRES   REMARKS
SAN JUAN LMM   PTSUNNY   79  73  83 SE12      29.97R                  
AGUADILLA      PTSUNNY   82 N/A N/A MISG      29.97S                  
CEIBA          LGT RAIN  79  79 100 MISG      29.98S FOG              
$$

VIZ001>002-152200-
U.S. VIRGIN ISLANDS
  
CITY           SKY/WX    TMP DP  RH WIND       PRES   REMARKS
CHARLOTTE AMA  MOSUNNY   84  75  74 NE10      29.96R HX  92           
CHRISTIANSTED  PTSUNNY   84  77  79 NE13      29.95R HX  94           
$$

HOURLY WEATHER ROUNDUP FOR THE NEWS MEDIA
  
CITY           SKY/WX    TMP DP  RH WIND       PRES   REMARKS
ORLANDO        FAIR      91  72  53 E9        30.05S HX  98           
NEW YORK       CLOUDY    65  64  97 SW10      29.95                   
NEWARK         CLOUDY    65  61  87 S10       29.92F                  
CHICAGO        FAIR      47  26  44 W17G26    30.18S                  
HARTFORD       LGT RAIN  65  65 100 SW15G31   29.91F                  
BOSTON         CLOUDY    65  60  84 SW15G26   29.88F                  
DALLAS         LGT RAIN  45  42  89 N16G24    30.27F FOG              
PHILADELPHIA   CLOUDY    68  63  84 SW15G22   29.95F                  
LOS ANGELES    SUNNY     82   3   5 N15G21    30.01F                  
WASHINGTON DC  LGT RAIN  65  64  97 SW5       29.99S